,,PA_Meas_PMT16A,,PR_Meas_QMR101_102,,RH_Meas_QMH101,,SR_Meas_QMS101,,TA_Meas_QMH101,,GenWind,,GenWind,
time,status,PA,status,PR,status,RH,status,SR,status,TA,status,DirAvg,status,SpdAvg,
2010-05-07, 00:00:05,VALID,914.925,VALID,0,VALID,96.9012,VALID,0,VALID,21.2421,VALID,158,VALID,0.875781,
2010-05-07, 00:01:05,VALID,914.918,VALID,0,VALID,96.8784,VALID,0,VALID,21.2226,VALID,132,VALID,1.90625,
2010-05-07, 00:02:05,VALID,914.924,VALID,0,VALID,96.8936,VALID,0,VALID,21.2242,VALID,140,VALID,1.66484,
2010-05-07, 00:03:05,VALID,914.923,VALID,0,VALID,96.8631,VALID,0,VALID,21.2242,VALID,146,VALID,1.43438,
2010-05-07, 00:04:05,VALID,914.881,VALID,0,VALID,96.886,VALID,0,VALID,21.2031,VALID,135,VALID,1.43438,
2010-05-07, 00:05:05,VALID,914.91,VALID,0.2,VALID,96.8784,VALID,0,VALID,21.2242,VALID,142,VALID,1.11563,
2010-05-07, 00:06:05,VALID,914.872,VALID,0,VALID,96.8707,VALID,0,VALID,21.2242,VALID,142,VALID,1.22734,
2010-05-07, 00:07:05,VALID,914.915,VALID,0,VALID,96.8707,VALID,0,VALID,21.1852,VALID,142,VALID,0.951563,
2010-05-07, 00:08:05,VALID,914.92,VALID,0.2,VALID,96.8784,VALID,0,VALID,21.2047,VALID,150,VALID,1.15391,
2010-05-07, 00:09:05,VALID,914.929,VALID,0,VALID,96.9241,VALID,0,VALID,21.2047,VALID,158,VALID,0.237109,
2010-05-07, 00:10:05,VALID,914.926,VALID,0,VALID,96.9165,VALID,0,VALID,21.2242,VALID,114,VALID,0.494922,
2010-05-07, 00:11:05,VALID,914.942,VALID,0.2,VALID,96.9622,VALID,0,VALID,21.2437,VALID,114,VALID,0.278906,
2010-05-07, 00:12:05,VALID,914.936,VALID,0.2,VALID,96.9546,VALID,0,VALID,21.2437,VALID,114,VALID,0.0078125,
2010-05-07, 00:13:05,VALID,914.967,VALID,0.2,VALID,96.947,VALID,0,VALID,21.2632,VALID,114,VALID,0.493359,
2010-05-07, 00:14:05,VALID,915.002,VALID,0,VALID,96.9622,VALID,0,VALID,21.2632,VALID,114,VALID,0.644922,
2010-05-07, 00:15:05,VALID,915.006,VALID,0.2,VALID,96.9851,VALID,0,VALID,21.2437,VALID,114,VALID,0.424219,
2010-05-07, 00:16:05,VALID,915.008,VALID,0.2,VALID,96.9622,VALID,0,VALID,21.2031,VALID,181,VALID,0.771875,
2010-05-07, 00:17:05,VALID,914.995,VALID,0,VALID,96.9775,VALID,0,VALID,21.1852,VALID,182,VALID,1.03828,
2010-05-07, 00:18:05,VALID,914.977,VALID,0.2,VALID,96.9698,VALID,0,VALID,21.1852,VALID,182,VALID,0.319141,
2010-05-07, 00:19:05,VALID,914.93,VALID,0.2,VALID,96.9546,VALID,0,VALID,21.1461,VALID,182,VALID,1.22734,
2010-05-07, 00:20:05,VALID,914.937,VALID,0,VALID,96.9546,VALID,0,VALID,21.1673,VALID,182,VALID,0.646094,
2010-05-07, 00:21:05,VALID,914.899,VALID,0.2,VALID,96.9775,VALID,0,VALID,21.1461,VALID,182,VALID,0.686328,
2010-05-07, 00:22:05,VALID,914.901,VALID,0.2,VALID,96.9927,VALID,0,VALID,21.1461,VALID,204,VALID,0.962891,
2010-05-07, 00:23:05,VALID,914.872,VALID,0,VALID,97.0003,VALID,0,VALID,21.1461,VALID,204,VALID,0.885547,
2010-05-07, 00:24:05,VALID,914.846,VALID,0.2,VALID,97.0003,VALID,0,VALID,21.1266,VALID,204,VALID,0.845312,
2010-05-07, 00:25:05,VALID,914.806,VALID,0,VALID,97.0156,VALID,0,VALID,21.1071,VALID,204,VALID,0.978125,
2010-05-07, 00:26:05,VALID,914.818,VALID,0.2,VALID,97.0156,VALID,0,VALID,21.1087,VALID,204,VALID,0.780078,
2010-05-07, 00:27:05,VALID,914.777,VALID,0.2,VALID,97.0308,VALID,0,VALID,21.0876,VALID,204,VALID,0.841797,
2010-05-07, 00:28:05,VALID,914.803,VALID,0,VALID,97.0385,VALID,0,VALID,21.0681,VALID,204,VALID,1.03516,
2010-05-07, 00:29:05,VALID,914.799,VALID,0,VALID,97.0461,VALID,0,VALID,21.0681,VALID,204,VALID,0.963672,
2010-05-07, 00:30:05,VALID,914.787,VALID,0,VALID,97.0537,VALID,0,VALID,21.0681,VALID,177,VALID,1.29609,
2010-05-07, 00:31:05,VALID,914.831,VALID,0,VALID,97.0766,VALID,0,VALID,21.0681,VALID,196,VALID,0.821094,
2010-05-07, 00:32:05,VALID,914.817,VALID,0.2,VALID,97.0766,VALID,0,VALID,21.0681,VALID,196,VALID,0.353906,
2010-05-07, 00:33:05,VALID,914.84,VALID,0,VALID,97.0918,VALID,0,VALID,21.0681,VALID,196,VALID,0.26875,
2010-05-07, 00:34:05,VALID,914.822,VALID,0,VALID,97.0918,VALID,0,VALID,21.0681,VALID,196,VALID,0.0351563,
2010-05-07, 00:35:05,VALID,914.83,VALID,0,VALID,97.0994,VALID,0,VALID,21.0486,VALID,196,VALID,0.364453,
2010-05-07, 00:36:05,VALID,914.83,VALID,0,VALID,97.0994,VALID,0,VALID,21.0486,VALID,196,VALID,0.441406,
2010-05-07, 00:37:05,VALID,914.83,VALID,0,VALID,97.1147,VALID,0,VALID,21.0096,VALID,196,VALID,0.319531,
2010-05-07, 00:38:05,VALID,914.789,VALID,0,VALID,97.1299,VALID,0,VALID,20.9901,VALID,160,VALID,0.330469,
2010-05-07, 00:39:05,VALID,914.812,VALID,0,VALID,97.1147,VALID,0,VALID,20.9706,VALID,160,VALID,0.58125,
2010-05-07, 00:40:05,VALID,914.8,VALID,0,VALID,97.1223,VALID,0,VALID,20.9511,VALID,160,VALID,0.197266,
2010-05-07, 00:41:05,VALID,914.765,VALID,0.2,VALID,97.1376,VALID,0,VALID,20.9706,VALID,160,VALID,0.364453,
2010-05-07, 00:42:05,VALID,914.737,VALID,0,VALID,97.1299,VALID,0,VALID,20.9722,VALID,160,VALID,0.0269531,
2010-05-07, 00:43:05,VALID,914.731,VALID,0,VALID,97.1528,VALID,0,VALID,20.9511,VALID,160,VALID,0,
2010-05-07, 00:44:05,VALID,914.716,VALID,0,VALID,97.1604,VALID,0,VALID,20.9511,VALID,160,VALID,0.182422,
2010-05-07, 00:45:05,VALID,914.689,VALID,0,VALID,97.1604,VALID,0,VALID,20.9511,VALID,160,VALID,0.227734,
2010-05-07, 00:46:05,VALID,914.682,VALID,0,VALID,97.1681,VALID,0,VALID,20.9511,VALID,160,VALID,0.471875,
2010-05-07, 00:47:05,VALID,914.688,VALID,0,VALID,97.1833,VALID,0,VALID,20.9316,VALID,160,VALID,0.515625,
2010-05-07, 00:48:05,VALID,914.681,VALID,0,VALID,97.1833,VALID,0,VALID,20.8925,VALID,160,VALID,0.864844,
2010-05-07, 00:49:05,VALID,914.663,VALID,0,VALID,97.1528,VALID,0,VALID,20.8535,VALID,160,VALID,0.785547,
2010-05-07, 00:50:05,VALID,914.624,VALID,0,VALID,97.1681,VALID,0,VALID,20.8129,VALID,120,VALID,0.683203,
2010-05-07, 00:51:05,VALID,914.628,VALID,0,VALID,97.1604,VALID,0,VALID,20.8129,VALID,120,VALID,0.750781,
2010-05-07, 00:52:05,VALID,914.619,VALID,0,VALID,97.1604,VALID,0,VALID,20.8145,VALID,120,VALID,0.646875,
2010-05-07, 00:53:05,VALID,914.63,VALID,0,VALID,97.1757,VALID,0.107441,VALID,20.8129,VALID,120,VALID,0.75625,
2010-05-07, 00:54:05,VALID,914.614,VALID,0,VALID,97.1909,VALID,0,VALID,20.7934,VALID,120,VALID,0.915234,
2010-05-07, 00:55:05,VALID,914.591,VALID,0,VALID,97.1757,VALID,0,VALID,20.7934,VALID,60,VALID,1.06172,
2010-05-07, 00:56:05,VALID,914.582,VALID,0,VALID,97.2062,VALID,0,VALID,20.7934,VALID,60,VALID,0.937109,
2010-05-07, 00:57:05,VALID,914.569,VALID,0,VALID,97.1986,VALID,0,VALID,20.8129,VALID,60,VALID,0.71875,
2010-05-07, 00:58:05,VALID,914.541,VALID,0,VALID,97.2138,VALID,0,VALID,20.8129,VALID,60,VALID,1.36719,
2010-05-07, 00:59:05,VALID,914.519,VALID,0,VALID,97.2138,VALID,0,VALID,20.8519,VALID,16,VALID,0.866406,
2010-05-07, 01:00:05,VALID,914.54,VALID,0,VALID,97.2214,VALID,0,VALID,20.8324,VALID,24,VALID,0.848047,
2010-05-07, 01:01:05,VALID,914.533,VALID,0,VALID,97.2367,VALID,0,VALID,20.873,VALID,25,VALID,0.5375,
2010-05-07, 01:02:05,VALID,914.528,VALID,0,VALID,97.2672,VALID,0,VALID,20.873,VALID,25,VALID,0.700391,
2010-05-07, 01:03:05,VALID,914.522,VALID,0,VALID,97.2595,VALID,0,VALID,20.8714,VALID,25,VALID,0.464453,
2010-05-07, 01:04:05,VALID,914.538,VALID,0,VALID,97.2519,VALID,0.107441,VALID,20.891,VALID,25,VALID,0.258203,
2010-05-07, 01:05:05,VALID,914.51,VALID,0,VALID,97.2595,VALID,0.107441,VALID,20.8925,VALID,25,VALID,0.446875,
2010-05-07, 01:06:05,VALID,914.499,VALID,0,VALID,97.2748,VALID,0,VALID,20.8714,VALID,25,VALID,0.601172,
2010-05-07, 01:07:05,VALID,914.463,VALID,0,VALID,97.2824,VALID,0,VALID,20.8519,VALID,192,VALID,0.387109,
2010-05-07, 01:08:05,VALID,914.455,VALID,0,VALID,97.2748,VALID,0,VALID,20.891,VALID,192,VALID,0.278516,
2010-05-07, 01:09:05,VALID,914.457,VALID,0,VALID,97.29,VALID,0,VALID,20.891,VALID,192,VALID,0.257422,
2010-05-07, 01:10:05,VALID,914.437,VALID,0,VALID,97.2824,VALID,0.107441,VALID,20.891,VALID,192,VALID,0.800391,
2010-05-07, 01:11:05,VALID,914.406,VALID,0,VALID,97.2672,VALID,0,VALID,20.8699,VALID,192,VALID,0.713281,
2010-05-07, 01:12:05,VALID,914.401,VALID,0,VALID,97.3129,VALID,0.107441,VALID,20.891,VALID,192,VALID,0.471094,
2010-05-07, 01:13:05,VALID,914.412,VALID,0,VALID,97.2824,VALID,0,VALID,20.891,VALID,192,VALID,0.4625,
2010-05-07, 01:14:05,VALID,914.395,VALID,0,VALID,97.3053,VALID,0.107441,VALID,20.891,VALID,192,VALID,0.394531,
2010-05-07, 01:15:05,VALID,914.412,VALID,0,VALID,97.3205,VALID,0,VALID,20.9105,VALID,192,VALID,0.377734,
2010-05-07, 01:16:05,VALID,914.426,VALID,0,VALID,97.3129,VALID,0.107441,VALID,20.9105,VALID,192,VALID,0.58125,
2010-05-07, 01:17:05,VALID,914.422,VALID,0,VALID,97.3205,VALID,0.107441,VALID,20.9105,VALID,192,VALID,0.535937,
2010-05-07, 01:18:05,VALID,914.407,VALID,0,VALID,97.3053,VALID,0,VALID,20.891,VALID,192,VALID,0.351172,
2010-05-07, 01:19:05,VALID,914.419,VALID,0,VALID,97.3205,VALID,0,VALID,20.9105,VALID,192,VALID,0.00195313,
2010-05-07, 01:20:05,VALID,914.423,VALID,0,VALID,97.2977,VALID,0,VALID,20.912,VALID,192,VALID,0.375391,
2010-05-07, 01:21:05,VALID,914.432,VALID,0,VALID,97.3281,VALID,0,VALID,20.891,VALID,192,VALID,0.672656,
2010-05-07, 01:22:05,VALID,914.381,VALID,0,VALID,97.3434,VALID,0.107441,VALID,20.9105,VALID,192,VALID,0.317578,
2010-05-07, 01:23:05,VALID,914.372,VALID,0,VALID,97.3434,VALID,0,VALID,20.9105,VALID,192,VALID,0.306641,
2010-05-07, 01:24:05,VALID,914.334,VALID,0,VALID,97.3281,VALID,0.107441,VALID,20.9316,VALID,192,VALID,0.611328,
2010-05-07, 01:25:05,VALID,914.353,VALID,0,VALID,97.3358,VALID,0.107441,VALID,20.9316,VALID,192,VALID,0.220313,
2010-05-07, 01:26:05,VALID,914.321,VALID,0,VALID,97.3586,VALID,0,VALID,20.891,VALID,192,VALID,0.215234,
2010-05-07, 01:27:05,VALID,914.315,VALID,0,VALID,97.351,VALID,0,VALID,20.9105,VALID,192,VALID,0.0367187,
2010-05-07, 01:28:05,VALID,914.318,VALID,0,VALID,97.3434,VALID,0,VALID,20.912,VALID,192,VALID,0.217969,
2010-05-07, 01:29:05,VALID,914.292,VALID,0,VALID,97.3586,VALID,0,VALID,20.891,VALID,192,VALID,0.265234,
2010-05-07, 01:30:05,VALID,914.284,VALID,0,VALID,97.3281,VALID,0,VALID,20.891,VALID,192,VALID,0.373047,
2010-05-07, 01:31:05,VALID,914.287,VALID,0,VALID,97.3586,VALID,0,VALID,20.8714,VALID,192,VALID,0.212109,
2010-05-07, 01:32:05,VALID,914.27,VALID,0,VALID,97.3358,VALID,0,VALID,20.8714,VALID,192,VALID,0,
2010-05-07, 01:33:05,VALID,914.23,VALID,0,VALID,97.3586,VALID,0,VALID,20.8714,VALID,192,VALID,0,
2010-05-07, 01:34:05,VALID,914.21,VALID,0,VALID,97.3586,VALID,0,VALID,20.8714,VALID,192,VALID,0.0660156,
2010-05-07, 01:35:05,VALID,914.184,VALID,0,VALID,97.3739,VALID,0,VALID,20.912,VALID,192,VALID,0.471484,
2010-05-07, 01:36:05,VALID,914.18,VALID,0,VALID,97.3586,VALID,0,VALID,20.891,VALID,192,VALID,0.530859,
2010-05-07, 01:37:05,VALID,914.155,VALID,0,VALID,97.351,VALID,0,VALID,20.8714,VALID,192,VALID,0.578906,
2010-05-07, 01:38:05,VALID,914.141,VALID,0,VALID,97.3434,VALID,0,VALID,20.7934,VALID,192,VALID,0.960156,
2010-05-07, 01:39:05,VALID,914.123,VALID,0,VALID,97.3815,VALID,0,VALID,20.7739,VALID,192,VALID,0.905469,
2010-05-07, 01:40:05,VALID,914.128,VALID,0,VALID,97.3663,VALID,0,VALID,20.7739,VALID,192,VALID,0.626562,
2010-05-07, 01:41:05,VALID,914.129,VALID,0,VALID,97.3663,VALID,0,VALID,20.7739,VALID,192,VALID,0.485938,
2010-05-07, 01:42:05,VALID,914.115,VALID,0,VALID,97.3663,VALID,0,VALID,20.7739,VALID,192,VALID,0.456641,
2010-05-07, 01:43:05,VALID,914.092,VALID,0,VALID,97.3663,VALID,0,VALID,20.7723,VALID,192,VALID,0.292578,
2010-05-07, 01:44:05,VALID,914.094,VALID,0,VALID,97.3968,VALID,0,VALID,20.7934,VALID,192,VALID,0.021875,
2010-05-07, 01:45:05,VALID,914.073,VALID,0,VALID,97.3739,VALID,0,VALID,20.7934,VALID,192,VALID,0.126563,
2010-05-07, 01:46:05,VALID,914.062,VALID,0,VALID,97.3891,VALID,0,VALID,20.7934,VALID,192,VALID,0.496875,
2010-05-07, 01:47:05,VALID,914.118,VALID,0,VALID,97.3891,VALID,0,VALID,20.8129,VALID,192,VALID,0.554297,
2010-05-07, 01:48:05,VALID,914.092,VALID,0,VALID,97.4044,VALID,0,VALID,20.7739,VALID,192,VALID,0.938281,
2010-05-07, 01:49:05,VALID,914.07,VALID,0,VALID,97.3968,VALID,0,VALID,20.7739,VALID,191,VALID,0.833594,
2010-05-07, 01:50:05,VALID,914.059,VALID,0,VALID,97.3968,VALID,0,VALID,20.7739,VALID,191,VALID,0.570313,
2010-05-07, 01:51:05,VALID,914.065,VALID,0,VALID,97.3891,VALID,0,VALID,20.795,VALID,190,VALID,0.78125,
2010-05-07, 01:52:05,VALID,914.028,VALID,0,VALID,97.3968,VALID,0.107441,VALID,20.7739,VALID,138,VALID,0.805469,
2010-05-07, 01:53:05,VALID,914.009,VALID,0,VALID,97.3968,VALID,0,VALID,20.7755,VALID,120,VALID,0.967969,
2010-05-07, 01:54:05,VALID,913.972,VALID,0,VALID,97.412,VALID,0.107441,VALID,20.756,VALID,120,VALID,0.748438,
2010-05-07, 01:55:05,VALID,913.969,VALID,0,VALID,97.3891,VALID,0,VALID,20.7349,VALID,120,VALID,0.8375,
2010-05-07, 01:56:05,VALID,913.966,VALID,0,VALID,97.3891,VALID,0,VALID,20.7349,VALID,120,VALID,0.639063,
2010-05-07, 01:57:05,VALID,913.951,VALID,0,VALID,97.4196,VALID,0,VALID,20.756,VALID,120,VALID,0.636328,
2010-05-07, 01:58:05,VALID,913.937,VALID,0,VALID,97.3968,VALID,0,VALID,20.756,VALID,120,VALID,0.597266,
2010-05-07, 01:59:05,VALID,913.971,VALID,0,VALID,97.3968,VALID,0,VALID,20.7365,VALID,120,VALID,0.779297,
2010-05-07, 02:00:05,VALID,913.979,VALID,0,VALID,97.3968,VALID,0,VALID,20.7154,VALID,120,VALID,0.891016,
2010-05-07, 02:01:05,VALID,913.95,VALID,0,VALID,97.412,VALID,0.107441,VALID,20.7365,VALID,120,VALID,0.946484,
2010-05-07, 02:02:05,VALID,913.948,VALID,0,VALID,97.4196,VALID,0,VALID,20.7154,VALID,120,VALID,0.770312,
2010-05-07, 02:03:05,VALID,913.956,VALID,0,VALID,97.412,VALID,0,VALID,20.6959,VALID,120,VALID,0.919141,
2010-05-07, 02:04:05,VALID,913.936,VALID,0,VALID,97.4044,VALID,0,VALID,20.6764,VALID,120,VALID,0.86875,
2010-05-07, 02:05:05,VALID,913.943,VALID,0,VALID,97.4196,VALID,0,VALID,20.6764,VALID,120,VALID,0.740234,
2010-05-07, 02:06:05,VALID,913.944,VALID,0,VALID,97.4196,VALID,0,VALID,20.6764,VALID,120,VALID,0.963672,
2010-05-07, 02:07:05,VALID,913.888,VALID,0,VALID,97.4273,VALID,0,VALID,20.678,VALID,120,VALID,0.95,
2010-05-07, 02:08:05,VALID,913.872,VALID,0,VALID,97.4044,VALID,0,VALID,20.678,VALID,120,VALID,0.894922,
2010-05-07, 02:09:05,VALID,913.854,VALID,0,VALID,97.4196,VALID,0,VALID,20.6585,VALID,120,VALID,0.812891,
2010-05-07, 02:10:05,VALID,913.858,VALID,0,VALID,97.4273,VALID,0.107441,VALID,20.6569,VALID,120,VALID,0.531641,
2010-05-07, 02:11:05,VALID,913.845,VALID,0,VALID,97.4349,VALID,0,VALID,20.6374,VALID,120,VALID,0.695703,
2010-05-07, 02:12:05,VALID,913.803,VALID,0,VALID,97.4196,VALID,0,VALID,20.6374,VALID,120,VALID,0.741797,
2010-05-07, 02:13:05,VALID,913.809,VALID,0,VALID,97.4349,VALID,0,VALID,20.6374,VALID,120,VALID,0.623828,
2010-05-07, 02:14:05,VALID,913.769,VALID,0,VALID,97.4349,VALID,0,VALID,20.6585,VALID,120,VALID,0.674219,
2010-05-07, 02:15:05,VALID,913.739,VALID,0,VALID,97.4349,VALID,0,VALID,20.6569,VALID,120,VALID,0.758594,
2010-05-07, 02:16:05,VALID,913.738,VALID,0,VALID,97.4577,VALID,0,VALID,20.678,VALID,120,VALID,0.487109,
2010-05-07, 02:17:05,VALID,913.707,VALID,0,VALID,97.4273,VALID,0,VALID,20.6959,VALID,120,VALID,0.664844,
2010-05-07, 02:18:05,VALID,913.694,VALID,0,VALID,97.4349,VALID,0,VALID,20.6764,VALID,120,VALID,0.465625,
2010-05-07, 02:19:05,VALID,913.655,VALID,0,VALID,97.4349,VALID,0.107441,VALID,20.717,VALID,120,VALID,0.145313,
2010-05-07, 02:20:05,VALID,913.664,VALID,0,VALID,97.4349,VALID,0,VALID,20.6975,VALID,120,VALID,0.0460938,
2010-05-07, 02:21:05,VALID,913.668,VALID,0,VALID,97.4501,VALID,0,VALID,20.6975,VALID,120,VALID,0,
2010-05-07, 02:22:05,VALID,913.659,VALID,0,VALID,97.4501,VALID,0,VALID,20.717,VALID,120,VALID,0.167187,
2010-05-07, 02:23:05,VALID,913.648,VALID,0,VALID,97.4577,VALID,0,VALID,20.7154,VALID,120,VALID,0,
2010-05-07, 02:24:05,VALID,913.679,VALID,0,VALID,97.4501,VALID,0,VALID,20.7154,VALID,120,VALID,0,
2010-05-07, 02:25:05,VALID,913.687,VALID,0,VALID,97.4501,VALID,0,VALID,20.7349,VALID,120,VALID,0,
2010-05-07, 02:26:05,VALID,913.669,VALID,0,VALID,97.4501,VALID,0,VALID,20.7544,VALID,120,VALID,0,
2010-05-07, 02:27:05,VALID,913.683,VALID,0,VALID,97.4501,VALID,0,VALID,20.7544,VALID,120,VALID,0,
2010-05-07, 02:28:04,VALID,913.687,VALID,0,VALID,97.4425,VALID,0,VALID,20.795,VALID,120,VALID,0,
2010-05-07, 02:29:04,VALID,913.679,VALID,0,VALID,97.4577,VALID,0,VALID,20.7755,VALID,120,VALID,0.0347656,
2010-05-07, 02:30:04,VALID,913.689,VALID,0,VALID,97.4577,VALID,0,VALID,20.7349,VALID,120,VALID,0.356641,
2010-05-07, 02:31:04,VALID,913.721,VALID,0,VALID,97.4425,VALID,0,VALID,20.756,VALID,120,VALID,0.536719,
2010-05-07, 02:32:04,VALID,913.731,VALID,0,VALID,97.4425,VALID,0,VALID,20.7349,VALID,120,VALID,0.983203,
2010-05-07, 02:33:04,VALID,913.764,VALID,0,VALID,97.4577,VALID,0,VALID,20.717,VALID,120,VALID,1.0293,
2010-05-07, 02:34:04,VALID,913.789,VALID,0,VALID,97.4501,VALID,0,VALID,20.6569,VALID,23,VALID,1.23398,
2010-05-07, 02:35:04,VALID,913.753,VALID,0,VALID,97.4425,VALID,0,VALID,20.639,VALID,33,VALID,0.933594,
2010-05-07, 02:36:04,VALID,913.733,VALID,0,VALID,97.4349,VALID,0,VALID,20.6585,VALID,33,VALID,0.837891,
2010-05-07, 02:37:04,VALID,913.729,VALID,0,VALID,97.4501,VALID,0,VALID,20.6569,VALID,33,VALID,0.800781,
2010-05-07, 02:38:04,VALID,913.7,VALID,0,VALID,97.473,VALID,0,VALID,20.678,VALID,33,VALID,0.685938,
2010-05-07, 02:39:04,VALID,913.67,VALID,0,VALID,97.4654,VALID,0,VALID,20.6569,VALID,33,VALID,0.425781,
2010-05-07, 02:40:04,VALID,913.648,VALID,0,VALID,97.4654,VALID,0,VALID,20.6959,VALID,33,VALID,0.0398437,
2010-05-07, 02:41:04,VALID,913.623,VALID,0,VALID,97.4654,VALID,0,VALID,20.717,VALID,33,VALID,0,
2010-05-07, 02:42:04,VALID,913.591,VALID,0,VALID,97.473,VALID,0,VALID,20.7365,VALID,33,VALID,0,
2010-05-07, 02:43:04,VALID,913.567,VALID,0,VALID,97.4577,VALID,0,VALID,20.7365,VALID,33,VALID,0,
2010-05-07, 02:44:04,VALID,913.578,VALID,0,VALID,97.4806,VALID,0,VALID,20.7365,VALID,33,VALID,0,
2010-05-07, 02:45:04,VALID,913.575,VALID,0,VALID,97.4577,VALID,0,VALID,20.7544,VALID,33,VALID,0,
2010-05-07, 02:46:04,VALID,913.591,VALID,0,VALID,97.4577,VALID,0,VALID,20.7755,VALID,33,VALID,0.151562,
2010-05-07, 02:47:04,VALID,913.581,VALID,0,VALID,97.473,VALID,0,VALID,20.7755,VALID,33,VALID,0.238281,
2010-05-07, 02:48:04,VALID,913.598,VALID,0,VALID,97.4577,VALID,0,VALID,20.6975,VALID,33,VALID,0.340625,
2010-05-07, 02:49:04,VALID,913.579,VALID,0,VALID,97.4654,VALID,0,VALID,20.6975,VALID,33,VALID,0.0988281,
2010-05-07, 02:50:04,VALID,913.568,VALID,0,VALID,97.4806,VALID,0,VALID,20.6959,VALID,33,VALID,0,
2010-05-07, 02:51:04,VALID,913.596,VALID,0,VALID,97.4654,VALID,0,VALID,20.7154,VALID,33,VALID,0,
2010-05-07, 02:52:04,VALID,913.565,VALID,0,VALID,97.473,VALID,0,VALID,20.7349,VALID,33,VALID,0.208203,
2010-05-07, 02:53:04,VALID,913.584,VALID,0,VALID,97.4654,VALID,0,VALID,20.7544,VALID,33,VALID,0.149609,
2010-05-07, 02:54:04,VALID,913.577,VALID,0,VALID,97.4882,VALID,0,VALID,20.756,VALID,33,VALID,0.256641,
2010-05-07, 02:55:04,VALID,913.544,VALID,0,VALID,97.4806,VALID,0,VALID,20.7365,VALID,33,VALID,0.225,
2010-05-07, 02:56:04,VALID,913.538,VALID,0,VALID,97.4882,VALID,0,VALID,20.7365,VALID,33,VALID,0.0078125,
2010-05-07, 02:57:04,VALID,913.558,VALID,0,VALID,97.4806,VALID,0,VALID,20.7349,VALID,33,VALID,0,
2010-05-07, 02:58:04,VALID,913.541,VALID,0,VALID,97.4882,VALID,0.107441,VALID,20.7349,VALID,33,VALID,0.369141,
2010-05-07, 02:59:04,VALID,913.524,VALID,0,VALID,97.4882,VALID,0,VALID,20.7349,VALID,33,VALID,0.498437,
2010-05-07, 03:00:04,VALID,913.541,VALID,0,VALID,97.4882,VALID,0,VALID,20.7365,VALID,33,VALID,0.619922,
2010-05-07, 03:01:04,VALID,913.543,VALID,0,VALID,97.4959,VALID,0.107441,VALID,20.7154,VALID,33,VALID,0.432813,
2010-05-07, 03:02:04,VALID,913.554,VALID,0,VALID,97.4654,VALID,0,VALID,20.7154,VALID,33,VALID,0.500781,
2010-05-07, 03:03:04,VALID,913.536,VALID,0,VALID,97.4959,VALID,0,VALID,20.7365,VALID,33,VALID,0.249609,
2010-05-07, 03:04:04,VALID,913.506,VALID,0,VALID,97.5035,VALID,0,VALID,20.756,VALID,33,VALID,0.180469,
2010-05-07, 03:05:04,VALID,913.504,VALID,0,VALID,97.5111,VALID,0,VALID,20.7755,VALID,33,VALID,0.00117188,
2010-05-07, 03:06:04,VALID,913.482,VALID,0,VALID,97.4959,VALID,0.107441,VALID,20.7755,VALID,33,VALID,0.480078,
2010-05-07, 03:07:04,VALID,913.47,VALID,0,VALID,97.4959,VALID,0.107441,VALID,20.7349,VALID,33,VALID,0.629297,
2010-05-07, 03:08:04,VALID,913.436,VALID,0,VALID,97.4959,VALID,0,VALID,20.7154,VALID,33,VALID,0.642969,
2010-05-07, 03:09:04,VALID,913.441,VALID,0,VALID,97.4882,VALID,0,VALID,20.7154,VALID,33,VALID,0.490234,
2010-05-07, 03:10:04,VALID,913.401,VALID,0,VALID,97.4882,VALID,0,VALID,20.717,VALID,33,VALID,0.580859,
2010-05-07, 03:11:04,VALID,913.417,VALID,0,VALID,97.5187,VALID,0,VALID,20.6764,VALID,83,VALID,1.0082,
2010-05-07, 03:12:04,VALID,913.401,VALID,0,VALID,97.4959,VALID,0,VALID,20.6764,VALID,83,VALID,0.793359,
2010-05-07, 03:13:04,VALID,913.365,VALID,0,VALID,97.4959,VALID,0,VALID,20.6975,VALID,83,VALID,0.524609,
2010-05-07, 03:14:04,VALID,913.329,VALID,0,VALID,97.4959,VALID,0,VALID,20.6764,VALID,83,VALID,0.377734,
2010-05-07, 03:15:04,VALID,913.325,VALID,0,VALID,97.4882,VALID,0,VALID,20.717,VALID,83,VALID,0.769531,
2010-05-07, 03:16:04,VALID,913.246,VALID,0,VALID,97.5111,VALID,0,VALID,20.717,VALID,83,VALID,0.549609,
2010-05-07, 03:17:04,VALID,913.251,VALID,0,VALID,97.5035,VALID,0,VALID,20.6975,VALID,83,VALID,0.630078,
2010-05-07, 03:18:04,VALID,913.231,VALID,0,VALID,97.5187,VALID,0,VALID,20.6569,VALID,83,VALID,0.456641,
2010-05-07, 03:19:04,VALID,913.242,VALID,0,VALID,97.5264,VALID,0,VALID,20.6975,VALID,83,VALID,0.385547,
2010-05-07, 03:20:04,VALID,913.185,VALID,0,VALID,97.4959,VALID,0,VALID,20.717,VALID,83,VALID,0.508203,
2010-05-07, 03:21:04,VALID,913.187,VALID,0,VALID,97.5111,VALID,0,VALID,20.6975,VALID,83,VALID,0.566406,
2010-05-07, 03:22:04,VALID,913.165,VALID,0,VALID,97.5035,VALID,0,VALID,20.6975,VALID,83,VALID,0.619141,
2010-05-07, 03:23:04,VALID,913.178,VALID,0,VALID,97.5111,VALID,0,VALID,20.6975,VALID,83,VALID,0.389062,
2010-05-07, 03:24:04,VALID,913.158,VALID,0,VALID,97.5264,VALID,0,VALID,20.6975,VALID,83,VALID,0.301562,
2010-05-07, 03:25:04,VALID,913.161,VALID,0,VALID,97.5187,VALID,0,VALID,20.678,VALID,83,VALID,0.06875,
2010-05-07, 03:26:04,VALID,913.152,VALID,0,VALID,97.5111,VALID,0,VALID,20.678,VALID,83,VALID,0.0976563,
2010-05-07, 03:27:04,VALID,913.162,VALID,0,VALID,97.5187,VALID,0,VALID,20.678,VALID,83,VALID,0.0570313,
2010-05-07, 03:28:04,VALID,913.141,VALID,0,VALID,97.4959,VALID,0,VALID,20.6975,VALID,83,VALID,0.00195313,
2010-05-07, 03:29:04,VALID,913.142,VALID,0,VALID,97.5187,VALID,0,VALID,20.6975,VALID,83,VALID,0.236719,
2010-05-07, 03:30:04,VALID,913.121,VALID,0,VALID,97.534,VALID,0,VALID,20.6975,VALID,83,VALID,0.162109,
2010-05-07, 03:31:04,VALID,913.1,VALID,0,VALID,97.5264,VALID,0,VALID,20.717,VALID,83,VALID,0,
2010-05-07, 03:32:04,VALID,913.09,VALID,0,VALID,97.5187,VALID,0,VALID,20.7365,VALID,83,VALID,0.505078,
2010-05-07, 03:33:04,VALID,913.1,VALID,0,VALID,97.5187,VALID,0,VALID,20.7349,VALID,83,VALID,0.414453,
2010-05-07, 03:34:04,VALID,913.125,VALID,0,VALID,97.5187,VALID,0,VALID,20.756,VALID,83,VALID,0.337891,
2010-05-07, 03:35:04,VALID,913.099,VALID,0,VALID,97.5187,VALID,0,VALID,20.756,VALID,83,VALID,0.577734,
2010-05-07, 03:36:04,VALID,913.131,VALID,0,VALID,97.5187,VALID,0,VALID,20.756,VALID,83,VALID,0.417188,
2010-05-07, 03:37:04,VALID,913.116,VALID,0,VALID,97.5187,VALID,0,VALID,20.7349,VALID,83,VALID,0.296094,
2010-05-07, 03:38:04,VALID,913.103,VALID,0,VALID,97.5264,VALID,0,VALID,20.7349,VALID,83,VALID,0.242188,
2010-05-07, 03:39:04,VALID,913.095,VALID,0,VALID,97.5187,VALID,0,VALID,20.7755,VALID,83,VALID,0.279297,
2010-05-07, 03:40:04,VALID,913.048,VALID,0,VALID,97.5416,VALID,0,VALID,20.756,VALID,83,VALID,0.498828,
2010-05-07, 03:41:04,VALID,913.02,VALID,0,VALID,97.5264,VALID,0,VALID,20.756,VALID,83,VALID,0.825781,
2010-05-07, 03:42:04,VALID,913.016,VALID,0,VALID,97.5111,VALID,0,VALID,20.756,VALID,83,VALID,0.847266,
2010-05-07, 03:43:04,VALID,912.997,VALID,0,VALID,97.5264,VALID,0,VALID,20.756,VALID,106,VALID,1.01758,
2010-05-07, 03:44:04,VALID,912.998,VALID,0,VALID,97.534,VALID,0,VALID,20.7154,VALID,184,VALID,1.25391,
2010-05-07, 03:45:04,VALID,913.005,VALID,0,VALID,97.5187,VALID,0,VALID,20.7154,VALID,184,VALID,1.21914,